This is the latest recevied weather packets stored in our database for station/object WA9AFM. If no packets are shown the sender has not sent any weather packets the latest 10 day(s).
| Time | Temp. | Humidity | Pressure | Rain* | Wind** | Luminosity | Snow |
|---|---|---|---|---|---|---|---|
| 1787653105 | 26.11° C | 73% | 1005.9 hPa | 0 mm | - | - | - |
| 1787652205 | 26.11° C | 74% | 1006 hPa | 0 mm | - | - | - |
| 1787651306 | 26.11° C | 75% | 1006 hPa | 0 mm | - | - | - |
| 1787650405 | 26.11° C | 75% | 1005.9 hPa | 0 mm | - | - | - |
| 1787649504 | 26.11° C | 75% | 1005.9 hPa | 0 mm | - | - | - |
| 1787648606 | 26.11° C | 74% | 1005.8 hPa | 0 mm | - | - | - |
| 1787647705 | 26.67° C | 74% | 1005.8 hPa | 0 mm | - | - | - |
| 1787646804 | 26.67° C | 74% | 1005.6 hPa | 0 mm | - | - | - |
| 1787645905 | 26.11° C | 76% | 1005.5 hPa | 0 mm | - | - | - |
| 1787645005 | 26.11° C | 76% | 1005.6 hPa | 0 mm | - | - | - |
| 1787644105 | 26.11° C | 76% | 1005.7 hPa | 0 mm | - | - | - |
| 1787643204 | 26.11° C | 75% | 1005.8 hPa | 0 mm | - | - | - |
| 1787642305 | 26.67° C | 73% | 1005.8 hPa | 0 mm | - | - | - |
| 1787641406 | 27.22° C | 73% | 1005.6 hPa | 0 mm | - | - | - |
| 1787640506 | 27.78° C | 72% | 1005.8 hPa | 0 mm | - | - | - |
| 1787639605 | 27.78° C | 71% | 1005.9 hPa | 0 mm | - | - | - |
| 1787638705 | 28.33° C | 70% | 1005.9 hPa | 0 mm | - | - | - |
| 1787637805 | 28.89° C | 68% | 1005.8 hPa | 0 mm | - | - | - |
| 1787636906 | 28.89° C | 67% | 1005.5 hPa | 0 mm | - | - | - |
| 1787636005 | 29.44° C | 65% | 1005.6 hPa | 0 mm | - | - | - |
| 1787635104 | 30° C | 65% | 1005.5 hPa | 0 mm | - | - | - |
| 1787634206 | 30° C | 64% | 1005.4 hPa | 0 mm | - | - | - |
| 1787633305 | 30.56° C | 63% | 1005.3 hPa | 0 mm | - | - | - |
| 1787632404 | 30.56° C | 62% | 1005.4 hPa | 0 mm | - | - | - |
| 1787631505 | 31.11° C | 60% | 1005.5 hPa | 0 mm | - | - | - |
* Rain latest hour (hover to see other rain measurements)
** Current wind speed in m/s (hover to see current wind gust speed)